| time (UTC) | temp F | wind direction | speed MPH | gust MPH | rain 1hr in | rain 24hr in | rain mn in | humidity % | barometer mb |
| 20260506112336 | 65 | 359 | 4.0 | 11.0 | 0.00 | 0.00 | 0.00 | 1 | 1005.9 |
| 20260506111327 | 65 | 359 | 2.0 | 6.0 | 0.00 | 0.00 | 0.00 | 1 | 1005.8 |
| 20260506110321 | 65 | 359 | 1.0 | 9.0 | 0.00 | 0.00 | 0.00 | 1 | 1005.9 |
| 20260506105319 | 65 | 359 | 3.0 | 10.0 | 0.00 | 0.00 | 0.00 | 1 | 1005.7 |
| 20260506104317 | 65 | 359 | 3.0 | 11.0 | 0.00 | 0.00 | 0.00 | 1 | 1005.9 |
| 20260506103316 | 65 | 359 | 2.0 | 6.0 | 0.00 | 0.00 | 0.00 | 1 | 1005.7 |
| 20260506102315 | 65 | 359 | 1.0 | 8.0 | 0.00 | 0.00 | 0.00 | 1 | 1005.6 |
| 20260506101320 | 65 | 359 | 1.0 | 5.0 | 0.00 | 0.00 | 0.00 | 1 | 1005.8 |
| 20260506100317 | 65 | 359 | 0.0 | 5.0 | 0.00 | 0.00 | 0.00 | 1 | 1005.6 |
| 20260506095315 | 65 | 359 | 3.0 | 8.0 | 0.00 | 0.00 | 0.00 | 1 | 1005.4 |
| 20260506094311 | 65 | 359 | 2.0 | 9.0 | 0.00 | 0.00 | 0.00 | 1 | 1005.6 |
| 20260506093350 | 65 | 359 | 5.0 | 10.0 | 0.00 | 0.00 | 0.00 | 1 | 1005.7 |
| 20260506092319 | 65 | 359 | 3.0 | 5.0 | 0.00 | 0.00 | 0.00 | 1 | 1005.6 |
| 20260506091324 | 65 | 359 | 3.0 | 9.0 | 0.00 | 0.00 | 0.00 | 1 | 1005.6 |
| 20260506090321 | 65 | 359 | 1.0 | 6.0 | 0.00 | 0.00 | 0.00 | 1 | 1005.5 |
| 20260506085320 | 66 | 359 | 1.0 | 8.0 | 0.00 | 0.00 | 0.00 | 1 | 1005.7 |
| 20260506084330 | 66 | 359 | 1.0 | 9.0 | 0.00 | 0.00 | 0.00 | 4 | 1005.7 |
| 20260506083326 | 66 | 359 | 1.0 | 10.0 | 0.00 | 0.00 | 0.00 | 14 | 1005.7 |
| 20260506082323 | 66 | 359 | 2.0 | 6.0 | 0.00 | 0.00 | 0.00 | 20 | 1005.8 |
| 20260506081318 | 67 | 359 | 1.0 | 5.0 | 0.00 | 0.00 | 0.00 | 27 | 1005.8 |
| 20260506080334 | 67 | 359 | 0.0 | 5.0 | 0.00 | 0.00 | 0.00 | 32 | 1005.9 |
| 20260506073314 | 67 | 359 | 0.0 | 3.0 | 0.00 | 0.00 | 0.00 | 43 | 1005.9 |
| 20260506072333 | 67 | 359 | 0.0 | 4.0 | 0.00 | 0.00 | 0.00 | 46 | 1005.9 |
| 20260506071352 | 68 | 359 | 1.0 | 4.0 | 0.00 | 0.00 | 0.00 | 49 | 1005.9 |
| 20260506070325 | 68 | 359 | 0.0 | 4.0 | 0.00 | 0.00 | 0.00 | 51 | 1006.1 |
| 20260506062326 | 69 | 359 | 3.0 | 8.0 | 0.00 | 0.00 | 0.00 | 53 | 1006.3 |
| 20260506061326 | 69 | 359 | 3.0 | 9.0 | 0.00 | 0.00 | 0.00 | 53 | 1006.2 |
| 20260506060318 | 69 | 359 | 1.0 | 8.0 | 0.00 | 0.00 | 0.00 | 53 | 1006.3 |
| 20260506051316 | 70 | 359 | 5.0 | 16.0 | 0.00 | 0.00 | 0.00 | 54 | 1006.5 |
| 20260506050336 | 70 | 359 | 3.0 | 8.0 | 0.00 | 0.00 | 0.00 | 55 | 1006.7 |
| 20260506044321 | 70 | 359 | 2.0 | 8.0 | 0.00 | 0.00 | 0.00 | 54 | 1006.8 |
| 20260506043319 | 70 | 359 | 1.0 | 10.0 | 0.00 | 0.00 | 0.00 | 53 | 1006.7 |
| 20260506042327 | 71 | 359 | 2.0 | 6.0 | 0.00 | 0.00 | 0.00 | 53 | 1006.7 |
| 20260506041319 | 71 | 359 | 2.0 | 10.0 | 0.00 | 0.00 | 0.00 | 52 | 1006.7 |
| 20260506040330 | 71 | 62 | 1.0 | 7.0 | 0.00 | 0.00 | 0.00 | 51 | 1006.6 |
| 20260506035320 | 72 | 187 | 3.0 | 7.0 | 0.00 | 0.00 | 0.00 | 50 | 1006.5 |
| 20260506034327 | 72 | 201 | 2.0 | 10.0 | 0.00 | 0.00 | 0.00 | 49 | 1006.5 |
| 20260506033322 | 72 | 359 | 0.0 | 4.0 | 0.00 | 0.00 | 0.00 | 48 | 1006.4 |
| 20260506032319 | 72 | 359 | 1.0 | 11.0 | 0.00 | 0.00 | 0.00 | 47 | 1006.4 |
| 20260506031315 | 73 | 186 | 3.0 | 7.0 | 0.00 | 0.00 | 0.00 | 47 | 1006.4 |
| 20260506030311 | 73 | 160 | 2.0 | 8.0 | 0.00 | 0.00 | 0.00 | 47 | 1006.3 |
| 20260506025348 | 73 | 229 | 3.0 | 8.0 | 0.00 | 0.00 | 0.00 | 46 | 1006.3 |
| 20260506024322 | 74 | 155 | 2.0 | 8.0 | 0.00 | 0.00 | 0.00 | 46 | 1006.3 |
| 20260506023320 | 74 | 224 | 4.0 | 12.0 | 0.00 | 0.00 | 0.00 | 45 | 1006.2 |
| 20260506022338 | 74 | 172 | 3.0 | 11.0 | 0.00 | 0.00 | 0.00 | 45 | 1006.1 |
| 20260506021328 | 74 | 193 | 3.0 | 11.0 | 0.00 | 0.00 | 0.00 | 44 | 1006.1 |
| 20260506020325 | 74 | 277 | 2.0 | 9.0 | 0.00 | 0.00 | 0.00 | 44 | 1006.0 |
| 20260506015323 | 74 | 197 | 2.0 | 7.0 | 0.00 | 0.00 | 0.00 | 42 | 1006.0 |
| 20260506014320 | 75 | 170 | 1.0 | 5.0 | 0.00 | 0.00 | 0.00 | 41 | 1006.1 |
| 20260506013340 | 75 | 228 | 1.0 | 10.0 | 0.00 | 0.00 | 0.00 | 40 | 1006.0 |
| 20260506012328 | 75 | 182 | 3.0 | 9.0 | 0.00 | 0.00 | 0.00 | 39 | 1005.8 |
| 20260506011323 | 75 | 249 | 3.0 | 9.0 | 0.00 | 0.00 | 0.00 | 39 | 1005.7 |
| 20260506010321 | 75 | 170 | 3.0 | 8.0 | 0.00 | 0.00 | 0.00 | 39 | 1005.5 |
| 20260506005320 | 75 | 239 | 4.0 | 8.0 | 0.00 | 0.00 | 0.00 | 39 | 1005.5 |
| 20260506004319 | 75 | 158 | 3.0 | 7.0 | 0.00 | 0.00 | 0.00 | 38 | 1005.4 |
| 20260506003329 | 75 | 60 | 1.0 | 7.0 | 0.00 | 0.00 | 0.00 | 39 | 1005.4 |
| 20260506002340 | 76 | 191 | 3.0 | 6.0 | 0.00 | 0.00 | 0.00 | 38 | 1005.3 |
| 20260506001317 | 76 | 145 | 4.0 | 10.0 | 0.00 | 0.00 | 0.00 | 38 | 1005.2 |
| 20260506000323 | 76 | 259 | 2.0 | 8.0 | 0.00 | 0.00 | 0.00 | 37 | 1005.2 |
| 20260505235321 | 76 | 185 | 4.0 | 16.0 | 0.00 | 0.00 | 0.00 | 37 | 1005.1 |
| 20260505234319 | 77 | 359 | 1.0 | 12.0 | 0.00 | 0.00 | 0.00 | 37 | 1005.0 |
| 20260505233315 | 77 | 156 | 3.0 | 10.0 | 0.00 | 0.00 | 0.00 | 36 | 1004.9 |
| 20260505232324 | 78 | 172 | 3.0 | 14.0 | 0.00 | 0.00 | 0.00 | 36 | 1004.6 |
| 20260505231319 | 78 | 95 | 3.0 | 18.0 | 0.00 | 0.00 | 0.00 | 36 | 1004.5 |
| 20260505230316 | 78 | 144 | 6.0 | 14.0 | 0.00 | 0.00 | 0.00 | 35 | 1004.5 |
| 20260505225314 | 79 | 213 | 5.0 | 12.0 | 0.00 | 0.00 | 0.00 | 35 | 1004.5 |
| 20260505224324 | 79 | 153 | 4.0 | 13.0 | 0.00 | 0.00 | 0.00 | 35 | 1004.2 |
| 20260505223340 | 79 | 201 | 8.0 | 15.0 | 0.00 | 0.00 | 0.00 | 34 | 1004.0 |
| 20260505222345 | 79 | 214 | 5.0 | 13.0 | 0.00 | 0.00 | 0.00 | 33 | 1004.2 |
| 20260505221320 | 80 | 359 | 5.0 | 21.0 | 0.00 | 0.00 | 0.00 | 33 | 1004.1 |
| 20260505220328 | 81 | 359 | 9.0 | 17.0 | 0.00 | 0.00 | 0.00 | 32 | 1003.9 |
| 20260505215326 | 81 | 359 | 5.0 | 21.0 | 0.00 | 0.00 | 0.00 | 33 | 1003.9 |
| 20260505214323 | 81 | 359 | 4.0 | 20.0 | 0.00 | 0.00 | 0.00 | 33 | 1003.7 |
| 20260505213322 | 81 | 359 | 5.0 | 14.0 | 0.00 | 0.00 | 0.00 | 32 | 1003.7 |
| 20260505212320 | 81 | 359 | 7.0 | 19.0 | 0.00 | 0.00 | 0.00 | 32 | 1003.8 |
| 20260505211327 | 81 | 359 | 6.0 | 18.0 | 0.00 | 0.00 | 0.00 | 33 | 1003.7 |
| 20260505210343 | 82 | 359 | 6.0 | 14.0 | 0.00 | 0.00 | 0.00 | 32 | 1003.5 |
| 20260505205321 | 82 | 359 | 4.0 | 13.0 | 0.00 | 0.00 | 0.00 | 33 | 1003.3 |
| 20260505204319 | 82 | 359 | 5.0 | 16.0 | 0.00 | 0.00 | 0.00 | 32 | 1003.4 |
| 20260505203314 | 83 | 359 | 7.0 | 16.0 | 0.00 | 0.00 | 0.00 | 32 | 1003.3 |
| 20260505202330 | 82 | 359 | 4.0 | 17.0 | 0.00 | 0.00 | 0.00 | 32 | 1003.5 |
| 20260505201325 | 82 | 359 | 3.0 | 20.0 | 0.00 | 0.00 | 0.00 | 34 | 1003.7 |
| 20260505200344 | 82 | 359 | 8.0 | 17.0 | 0.00 | 0.00 | 0.00 | 33 | 1004.0 |
| 20260505195320 | 83 | 359 | 5.0 | 15.0 | 0.00 | 0.00 | 0.00 | 33 | 1003.9 |
| 20260505194319 | 83 | 359 | 4.0 | 15.0 | 0.00 | 0.00 | 0.00 | 34 | 1004.0 |
| 20260505193344 | 83 | 359 | 4.0 | 18.0 | 0.00 | 0.00 | 0.00 | 33 | 1004.1 |
| 20260505192340 | 83 | 359 | 6.0 | 13.0 | 0.00 | 0.00 | 0.00 | 33 | 1004.2 |
| 20260505191316 | 82 | 359 | 7.0 | 17.0 | 0.00 | 0.00 | 0.00 | 34 | 1004.4 |
| 20260505190325 | 82 | 359 | 8.0 | 20.0 | 0.00 | 0.00 | 0.00 | 34 | 1004.6 |
| 20260505185316 | 83 | 359 | 9.0 | 17.0 | 0.00 | 0.00 | 0.00 | 35 | 1004.6 |
| 20260505184335 | 82 | 359 | 3.0 | 16.0 | 0.00 | 0.00 | 0.00 | 38 | 1004.6 |
| 20260505183324 | 82 | 359 | 4.0 | 14.0 | 0.00 | 0.00 | 0.00 | 37 | 1004.8 |
| 20260505182321 | 82 | 359 | 4.0 | 13.0 | 0.00 | 0.00 | 0.00 | 38 | 1005.1 |
| 20260505181319 | 81 | 359 | 6.0 | 18.0 | 0.00 | 0.00 | 0.00 | 38 | 1005.3 |
| 20260505180334 | 81 | 359 | 7.0 | 16.0 | 0.00 | 0.00 | 0.00 | 37 | 1005.3 |
| 20260505175320 | 80 | 359 | 4.0 | 23.0 | 0.00 | 0.00 | 0.00 | 39 | 1005.3 |
| 20260505174317 | 80 | 359 | 8.0 | 21.0 | 0.00 | 0.00 | 0.00 | 40 | 1005.5 |
| 20260505173323 | 80 | 359 | 7.0 | 19.0 | 0.00 | 0.00 | 0.00 | 40 | 1005.6 |
| 20260505172341 | 80 | 359 | 6.0 | 15.0 | 0.00 | 0.00 | 0.00 | 41 | 1005.7 |
| 20260505171313 | 80 | 359 | 4.0 | 15.0 | 0.00 | 0.00 | 0.00 | 41 | 1005.6 |
| 20260505170330 | 79 | 359 | 5.0 | 15.0 | 0.00 | 0.00 | 0.00 | 41 | 1005.7 |
| 20260505165317 | 79 | 359 | 5.0 | 13.0 | 0.00 | 0.00 | 0.00 | 43 | 1005.9 |
| 20260505164327 | 78 | 359 | 4.0 | 14.0 | 0.00 | 0.00 | 0.00 | 44 | 1006.1 |
| 20260505163324 | 78 | 359 | 3.0 | 15.0 | 0.00 | 0.00 | 0.00 | 44 | 1006.2 |
| 20260505162341 | 77 | 359 | 3.0 | 11.0 | 0.00 | 0.00 | 0.00 | 44 | 1006.3 |
| 20260505161328 | 77 | 359 | 3.0 | 16.0 | 0.00 | 0.00 | 0.00 | 44 | 1006.5 |
| 20260505160324 | 77 | 359 | 5.0 | 11.0 | 0.00 | 0.00 | 0.00 | 44 | 1006.8 |
| 20260505153319 | 76 | 359 | 3.0 | 11.0 | 0.00 | 0.00 | 0.00 | 47 | 1007.1 |
| 20260505152317 | 75 | 359 | 6.0 | 13.0 | 0.00 | 0.00 | 0.00 | 47 | 1007.0 |
| 20260505151312 | 75 | 359 | 3.0 | 13.0 | 0.00 | 0.00 | 0.00 | 47 | 1007.0 |
| 20260505150330 | 75 | 359 | 3.0 | 9.0 | 0.00 | 0.00 | 0.00 | 48 | 1007.0 |
| 20260505140336 | 71 | 359 | 7.0 | 15.0 | 0.00 | 0.00 | 0.00 | 50 | 1007.5 |
| 20260505124328 | 63 | 359 | 1.0 | 4.0 | 0.00 | 0.00 | 0.00 | 1 | 1007.4 |
| 20260505123323 | 62 | 359 | 2.0 | 4.0 | 0.00 | 0.00 | 0.00 | 1 | 1007.2 |
| 20260505122319 | 61 | 207 | 2.0 | 4.0 | 0.00 | 0.00 | 0.00 | 1 | 1007.3 |
| 20260505121328 | 59 | 192 | 2.0 | 4.0 | 0.00 | 0.00 | 0.00 | 1 | 1007.4 |
| 20260505120344 | 58 | 249 | 0.0 | 0.0 | 0.00 | 0.00 | 0.00 | 1 | 1007.4 |
| 20260505115322 | 58 | 226 | 0.0 | 0.0 | 0.00 | 0.00 | 0.00 | 1 | 1007.5 |
| 20260505114322 | 58 | 127 | 0.0 | 0.0 | 0.00 | 0.00 | 0.00 | 1 | 1007.5 |
| 20260505113339 | 58 | 127 | 0.0 | 0.0 | 0.00 | 0.00 | 0.00 | 1 | 1007.5 |